Location: Veytaux
(46.4185°N, 6.9320°E)
Time: 09:02:46
(UTC+00:00)

Cosmos 2184 Rocket - Pass Details

Date: 27 May 2022
Orbit: 958 x 1003 km, 82.9° (Epoch: 01 July)

Event Time Altitude Azimuth Distance (km) Brightness Sun altitude
Rises 02:02:07 0° 345° (NNW) 3,697 7.6 -14.0°
Reaches altitude 10° 02:04:46 10° 339° (NNW) 2,738 6.8 -13.7°
Maximum altitude 02:10:36 43° 271° (W) 1,342 4.5 -13.1°
Enters shadow 02:15:08 16° 207° (SSW) 2,278 5.3 -12.6°
